星链-31124 (STARLINK-31124 )

导读

STARLINK-31124是美国SpaceX公司星链(Starlink)星座中的一颗低轨卫星,于2023年12月29日发射升空。星链项目计划部署数万颗卫星,旨在为全球提供高速低延迟宽带互联网服务,尤其覆盖偏远、基础设施匮乏地区。该卫星运行于近地轨道,通过星间链路与地面系统配合,为用户提供稳定网络连接,助力星链全球覆盖网络的构建,推动卫星互联网的普及应用。

Basic Information
目录编号:
58674
目录名称:
STARLINK-31124
国际标识:
2023-211H
轨道中心:
EARTH
卫星名称:
星链-31124
卫星全名:
星链-31124 (STARLINK-31124 )
卫星状态:
在轨 (已飞行987 天)
发射日期:
2023-12-29 UTC
国别 :
美国 (US)
星等 :
--
This satellite is enrolled in the Space Conjunction Data Service (SCDS) and the current flight risk assessment level is: High Risk
Orbit Information
数据来源 国际轨道数据 AOE轨道数据
星历时间 2026-09-11T08:50:13+0800
18小时前
查看轨道信息
2026-09-05T23:00:00+0800
6天前
查看轨道信息
半长轴 6861.176km 6861.167km
偏心率 0.0001326 0.000172
轨道倾角 43.003° 43.005°
近地点辐角 271.808° 222.076°
升交点赤经 118.297° 148.855°
平近点角 88.262° 232.646°
近地点 482.129km 481.849km
远地点 483.949km 484.211km
周期 94.267分钟 94.266分钟
每日圈数 15.275836 15.275867
Detailed Information
固有亮度:
5
最大亮度:
0.3
卫星平台:
Starlink v2.0 mini
覆盖范围:
全球
运营商:
太空探索技术公司
运营商所在国:
美国
制造商(研发单位):
太空探索技术公司
制造商所在国:
美国
使用方式:
暂无
Satellite Introduction
星链(Starlink)计划是由太空探索技术公司(SpaceX)提出的一个巨型低轨卫星互联网星座项目,计划在2019年至2024年间在太空搭建由约1.2万颗卫星组成的“星链”网络,其中1584颗将部署在地球上空550千米处的近地轨道,并从2020年开始工作。该卫星仍在工作。
2D Orbit Map
3D Orbit Map
Orbit Altitude Analysis Chart
Orbit Inclination Analysis Chart
Orbit Comprehensive Analysis Chart
View Comprehensive Chart
Miss Distance Evolution Trend with All Objects
Collision Probability Evolution Trend with All Objects